Location: Gosfield
(51.9333°N, 0.5833°E)
Time: 09:36:43
(UTC+00:00)

Cosmos 1452 Rocket - Pass Details

Date: 06 September 2025
Orbit: 763 x 770 km, 74.1° (Epoch: 16 December)

Event Time Altitude Azimuth Distance (km) Brightness Sun altitude
Rises 19:34:53 0° 214° (SW) 3,234 6.9 -10.0°
Reaches altitude 10° 19:37:17 10° 218° (SW) 2,311 6.2 -10.3°
Maximum altitude 19:42:29 62° 299° (WNW) 869 4.1 -11.0°
Drops below altitude 10° 19:47:43 10° 20° (NNE) 2,323 6.1 -11.8°
Sets 19:50:08 0° 24° (NNE) 3,253 6.8 -12.1°
